This is the latest recevied weather packets stored in our database for station/object KM4KMS. If no packets are shown the sender has not sent any weather packets the latest 10 day(s).
| Time | Temp. | Humidity | Pressure | Rain* | Wind** | Luminosity | Snow |
|---|---|---|---|---|---|---|---|
| 1778007676 | 20.56° C | 70% | 1008.3 hPa | 0 mm | - | 111 W/m² | - |
| 1778007373 | 20.56° C | 70% | 1008.2 hPa | 0 mm | - | 115 W/m² | - |
| 1778007069 | 20.56° C | 71% | 1008.3 hPa | 0 mm | - | 129 W/m² | - |
| 1778006766 | 20.56° C | 70% | 1008.4 hPa | 0 mm | - | 95 W/m² | - |
| 1778006463 | 20.56° C | 69% | 1008.6 hPa | 0 mm | - | 129 W/m² | - |
| 1778006160 | 20.56° C | 70% | 1008.5 hPa | 0 mm | - | 115 W/m² | - |
| 1778005857 | 20.56° C | 69% | 1008.3 hPa | 0 mm | - | 134 W/m² | - |
| 1778005553 | 20.56° C | 70% | 1008.5 hPa | 0 mm | - | 163 W/m² | - |
| 1778005250 | 20.56° C | 70% | 1008.6 hPa | 0 mm | - | 193 W/m² | - |
| 1778004947 | 20.56° C | 70% | 1008.5 hPa | 0 mm | - | 203 W/m² | - |
| 1778004644 | 21.11° C | 69% | 1008.6 hPa | 0 mm | - | 161 W/m² | - |
| 1778004340 | 21.11° C | 69% | 1008.3 hPa | 0 mm | - | 258 W/m² | - |
| 1778004038 | 21.67° C | 69% | 1008.4 hPa | 0 mm | - | 718 W/m² | - |
| 1778003738 | 21.11° C | 69% | 1008.4 hPa | 0 mm | - | 826 W/m² | - |
| 1778003435 | 21.11° C | 70% | 1008.4 hPa | 0 mm | - | 571 W/m² | - |
| 1778003132 | 21.11° C | 69% | 1008.5 hPa | 0 mm | - | 445 W/m² | - |
| 1778002828 | 21.11° C | 69% | 1008.6 hPa | 0 mm | - | 619 W/m² | - |
| 1778002525 | 20.56° C | 71% | 1008.7 hPa | 0 mm | - | 398 W/m² | - |
| 1778002222 | 20.56° C | 72% | 1008.8 hPa | 0 mm | - | 325 W/m² | - |
| 1778001920 | 20° C | 73% | 1008.7 hPa | 0 mm | - | 240 W/m² | - |
| 1778001615 | 20° C | 72% | 1008.9 hPa | 0 mm | - | 189 W/m² | - |
| 1778001311 | 20° C | 71% | 1008.8 hPa | 0 mm | - | 182 W/m² | - |
| 1778001008 | 20° C | 72% | 1009.2 hPa | 0 mm | - | 203 W/m² | - |
| 1778000705 | 20° C | 71% | 1009.2 hPa | 0 mm | - | 222 W/m² | - |
| 1778000400 | 20° C | 71% | 1009.2 hPa | 0 mm | - | 221 W/m² | - |
* Rain latest hour (hover to see other rain measurements)
** Current wind speed in m/s (hover to see current wind gust speed)